AAL1454 KMIA-KPHX

Flight info

Callsign AAL1454
Flight time N/A
Altitude 32000
Route GLADZ4 BAGGS Y290 LEV J86 ELP DRRVR PINNG1
Aircraft A21N/M-SDE2E3FGHIRWXY/LB1

Departure

Time 2026-04-30 20:40
Airport Miami International Airport (KMIA)

Arrival

Time N/A
Airport Phoenix Sky Harbor International Airport (KPHX)
Time Latitude Longitude Altitude Speed Heading
2026-04-30 20:16 25.79822 -80.28415 22 ft 0 kts 177°
2026-04-30 20:29 25.79860 -80.28416 22 ft 4 kts 178°
2026-04-30 20:30 25.79885 -80.28366 21 ft 2 kts 268°
2026-04-30 20:30 25.79885 -80.28365 21 ft 0 kts 267°
2026-04-30 20:33 25.79885 -80.28368 21 ft 1 kts 267°
2026-04-30 20:34 25.79884 -80.28420 22 ft 5 kts 268°
2026-04-30 20:34 25.79929 -80.28496 20 ft 13 kts 324°
2026-04-30 20:35 25.80009 -80.28543 20 ft 13 kts 311°
2026-04-30 20:35 25.80023 -80.28642 21 ft 14 kts 268°
2026-04-30 20:35 25.80013 -80.28866 22 ft 15 kts 268°
2026-04-30 20:36 25.80009 -80.28984 21 ft 15 kts 267°
2026-04-30 20:36 25.80003 -80.29105 21 ft 16 kts 268°
2026-04-30 20:36 25.79994 -80.29357 21 ft 17 kts 267°
2026-04-30 20:37 25.79988 -80.29487 20 ft 17 kts 266°
2026-04-30 20:37 25.79983 -80.29619 20 ft 17 kts 268°
2026-04-30 20:37 25.79977 -80.29754 20 ft 18 kts 267°
2026-04-30 20:37 25.79971 -80.29891 19 ft 18 kts 267°
2026-04-30 20:38 25.79994 -80.30028 20 ft 18 kts 287°
2026-04-30 20:38 25.80027 -80.30116 20 ft 11 kts 317°
2026-04-30 20:38 25.80074 -80.30088 19 ft 6 kts 89°
2026-04-30 20:39 25.80088 -80.29617 19 ft 87 kts 86°
2026-04-30 20:39 25.80129 -80.28711 22 ft 147 kts 88°
2026-04-30 20:39 25.80190 -80.27431 194 ft 177 kts 89°
2026-04-30 20:40 25.80378 -80.24571 1387 ft 199 kts 91°
2026-04-30 20:40 25.80429 -80.22937 1760 ft 229 kts 91°
2026-04-30 20:40 25.80481 -80.21050 2186 ft 259 kts 91°
2026-04-30 20:41 25.81550 -80.17095 3626 ft 280 kts 45°
2026-04-30 20:41 25.83152 -80.15944 4396 ft 274 kts 14°
2026-04-30 20:41 25.85020 -80.15679 5150 ft 271 kts 358°
2026-04-30 20:41 25.86909 -80.15679 5880 ft 273 kts 357°
2026-04-30 20:42 25.88818 -80.15691 6569 ft 275 kts 354°
2026-04-30 20:42 25.90693 -80.16071 7218 ft 275 kts 341°
2026-04-30 20:42 25.94365 -80.17422 8613 ft 281 kts 339°
2026-04-30 20:43 25.96207 -80.18166 9368 ft 282 kts 332°
2026-04-30 20:43 25.97812 -80.19383 10076 ft 280 kts 313°
2026-04-30 20:43 25.98963 -80.21181 10408 ft 294 kts 293°
2026-04-30 20:44 25.99756 -80.25897 10884 ft 329 kts 276°
2026-04-30 20:44 25.99842 -80.28501 11155 ft 345 kts 270°
2026-04-30 20:44 25.99778 -80.33912 12262 ft 354 kts 270°
2026-04-30 20:45 25.99749 -80.39434 13572 ft 361 kts 269°
2026-04-30 20:45 25.99420 -80.42218 14172 ft 367 kts 256°
2026-04-30 20:45 25.98388 -80.44827 14723 ft 373 kts 240°
2026-04-30 20:46 25.93516 -80.51732 15947 ft 384 kts 234°
2026-04-30 20:46 25.91851 -80.54056 16276 ft 386 kts 234°
2026-04-30 20:47 25.88504 -80.58773 17251 ft 391 kts 235°
2026-04-30 20:47 25.86814 -80.61157 17734 ft 394 kts 235°
2026-04-30 20:48 25.83399 -80.65977 18609 ft 400 kts 235°
2026-04-30 20:48 25.81672 -80.68407 19005 ft 403 kts 235°
2026-04-30 20:48 25.79936 -80.70859 19393 ft 405 kts 236°
2026-04-30 20:48 25.78433 -80.73490 19766 ft 403 kts 247°
2026-04-30 20:49 25.77442 -80.76388 20151 ft 402 kts 256°
2026-04-30 20:49 25.76644 -80.79369 20529 ft 405 kts 257°
2026-04-30 20:49 25.75860 -80.82375 20908 ft 407 kts 256°
2026-04-30 20:50 25.74238 -80.88440 21674 ft 413 kts 256°
2026-04-30 20:50 25.73411 -80.91500 22054 ft 416 kts 256°
2026-04-30 20:50 25.72582 -80.94542 22414 ft 419 kts 256°
2026-04-30 20:50 25.71723 -80.97678 22768 ft 421 kts 256°
2026-04-30 20:51 25.70867 -81.00795 23122 ft 424 kts 256°
2026-04-30 20:51 25.69149 -81.07049 23733 ft 429 kts 256°
2026-04-30 20:51 25.68276 -81.10214 24019 ft 431 kts 256°
2026-04-30 20:52 25.67400 -81.13399 24297 ft 432 kts 256°
2026-04-30 20:52 25.66523 -81.16592 24578 ft 434 kts 256°
2026-04-30 20:52 25.65564 -81.23150 25132 ft 432 kts 273°
2026-04-30 20:53 25.65938 -81.26448 25396 ft 432 kts 284°
2026-04-30 20:53 25.66897 -81.29599 25656 ft 433 kts 295°
2026-04-30 20:53 25.68238 -81.32588 25936 ft 434 kts 297°
2026-04-30 20:54 25.71019 -81.38556 26519 ft 437 kts 297°
2026-04-30 20:54 25.72399 -81.41564 26791 ft 438 kts 296°
2026-04-30 20:54 25.73771 -81.44589 27054 ft 440 kts 296°
2026-04-30 20:55 25.76528 -81.50679 27568 ft 444 kts 296°
2026-04-30 20:55 25.77912 -81.53746 27813 ft 446 kts 296°
2026-04-30 20:55 25.79306 -81.56827 28052 ft 447 kts 296°
2026-04-30 20:56 25.82097 -81.63006 28624 ft 448 kts 296°
2026-04-30 20:56 25.83493 -81.66096 28949 ft 447 kts 296°
2026-04-30 20:56 25.86286 -81.72260 29529 ft 447 kts 296°
2026-04-30 20:57 25.87705 -81.75328 29844 ft 447 kts 297°
2026-04-30 20:57 25.89438 -81.78195 30119 ft 449 kts 308°
2026-04-30 20:57 25.91672 -81.80629 30363 ft 451 kts 319°
2026-04-30 20:58 25.96671 -81.84811 30957 ft 449 kts 321°
2026-04-30 20:58 25.99170 -81.86876 31268 ft 447 kts 321°
2026-04-30 20:58 26.01649 -81.88957 31582 ft 445 kts 321°
2026-04-30 20:58 26.04117 -81.91026 31882 ft 444 kts 321°
2026-04-30 20:59 26.09010 -81.95170 31646 ft 442 kts 320°
2026-04-30 20:59 26.11462 -81.97245 31620 ft 443 kts 321°
2026-04-30 21:00 26.16386 -82.01388 31804 ft 443 kts 321°
2026-04-30 21:00 26.21290 -82.05529 31991 ft 442 kts 320°
2026-04-30 21:01 26.28615 -82.11742 31962 ft 441 kts 321°
2026-04-30 21:02 26.35918 -82.17921 31972 ft 441 kts 320°
2026-04-30 21:02 26.40798 -82.22036 31962 ft 439 kts 321°
2026-04-30 21:03 26.45664 -82.26150 31964 ft 439 kts 320°
2026-04-30 21:03 26.50544 -82.30263 31965 ft 439 kts 320°
2026-04-30 21:04 26.55401 -82.34396 31960 ft 439 kts 320°
2026-04-30 21:04 26.62680 -82.40611 31960 ft 439 kts 320°
2026-04-30 21:05 26.67519 -82.44732 31963 ft 436 kts 320°
2026-04-30 21:05 26.72323 -82.48839 31956 ft 434 kts 320°
2026-04-30 21:06 26.77121 -82.52936 31957 ft 434 kts 320°
2026-04-30 21:06 26.81917 -82.57038 31957 ft 434 kts 320°
2026-04-30 21:07 26.86714 -82.61145 31957 ft 434 kts 320°
2026-04-30 21:07 26.91509 -82.65256 31956 ft 434 kts 320°
2026-04-30 21:08 26.96297 -82.69370 31959 ft 434 kts 320°
2026-04-30 21:08 27.01087 -82.73484 31961 ft 433 kts 320°
2026-04-30 21:09 27.05863 -82.77596 31953 ft 432 kts 320°
2026-04-30 21:09 27.10505 -82.81781 31956 ft 429 kts 314°
2026-04-30 21:10 27.12421 -82.84332 31945 ft 428 kts 303°
2026-04-30 21:10 27.13840 -82.87254 31957 ft 427 kts 292°
2026-04-30 21:10 27.15338 -82.93713 31956 ft 428 kts 282°
2026-04-30 21:11 27.16537 -83.00275 31953 ft 429 kts 283°
2026-04-30 21:11 27.17771 -83.06822 31948 ft 428 kts 283°
2026-04-30 21:12 27.19021 -83.13368 31941 ft 429 kts 283°
2026-04-30 21:12 27.20261 -83.19909 31941 ft 428 kts 283°
2026-04-30 21:13 27.21502 -83.26443 31943 ft 427 kts 283°
2026-04-30 21:13 27.22736 -83.32973 31942 ft 427 kts 283°
2026-04-30 21:14 27.23966 -83.39509 31949 ft 427 kts 283°
2026-04-30 21:14 27.25193 -83.46043 31943 ft 427 kts 283°
2026-04-30 21:15 27.26412 -83.52584 31948 ft 427 kts 283°
2026-04-30 21:15 27.27628 -83.59104 31940 ft 425 kts 283°
2026-04-30 21:16 27.28847 -83.65610 31943 ft 425 kts 283°
2026-04-30 21:16 27.30052 -83.72075 31947 ft 425 kts 283°
2026-04-30 21:17 27.31260 -83.78589 31946 ft 425 kts 283°
2026-04-30 21:17 27.32467 -83.85101 31945 ft 425 kts 283°
2026-04-30 21:18 27.33666 -83.91614 31947 ft 425 kts 283°
2026-04-30 21:18 27.34861 -83.98111 31957 ft 423 kts 283°
2026-04-30 21:19 27.36042 -84.04568 31949 ft 421 kts 283°
2026-04-30 21:19 27.37227 -84.11021 31949 ft 421 kts 283°
2026-04-30 21:20 27.38402 -84.17484 31945 ft 421 kts 283°
2026-04-30 21:20 27.39579 -84.23942 31944 ft 421 kts 283°
2026-04-30 21:21 27.40745 -84.30400 31943 ft 421 kts 282°
2026-04-30 21:22 27.42493 -84.40059 31942 ft 420 kts 282°
2026-04-30 21:23 27.44815 -84.52941 31938 ft 420 kts 282°
2026-04-30 21:23 27.46537 -84.62607 31948 ft 420 kts 282°
2026-04-30 21:24 27.47668 -84.69057 31940 ft 420 kts 282°
2026-04-30 21:24 27.48810 -84.75497 31945 ft 419 kts 282°
2026-04-30 21:25 27.50336 -84.84062 31949 ft 419 kts 282°
2026-04-30 21:26 27.52247 -84.94769 31943 ft 419 kts 281°
2026-04-30 21:27 27.53758 -85.03400 31938 ft 419 kts 281°
2026-04-30 21:27 27.54854 -85.09807 31936 ft 418 kts 281°
2026-04-30 21:28 27.56572 -85.19448 31943 ft 418 kts 281°
2026-04-30 21:29 27.58248 -85.29101 31937 ft 418 kts 281°
2026-04-30 21:30 27.62300 -85.44873 31945 ft 418 kts 288°
2026-04-30 21:31 27.66951 -85.60398 31939 ft 418 kts 288°
2026-04-30 21:32 27.69718 -85.69681 31938 ft 418 kts 288°
2026-04-30 21:32 27.71581 -85.75936 31938 ft 418 kts 288°
2026-04-30 21:33 27.74338 -85.85224 31931 ft 418 kts 288°
2026-04-30 21:34 27.76181 -85.91440 31930 ft 418 kts 288°
2026-04-30 21:34 27.78935 -86.00783 31941 ft 418 kts 287°
2026-04-30 21:35 27.80773 -86.07005 31937 ft 418 kts 288°
2026-04-30 21:35 27.82603 -86.13240 31934 ft 418 kts 288°
2026-04-30 21:36 27.84438 -86.19468 31931 ft 418 kts 287°
2026-04-30 21:37 27.88082 -86.31911 31936 ft 417 kts 287°
2026-04-30 21:37 27.89899 -86.38141 31931 ft 417 kts 287°
2026-04-30 21:38 27.91715 -86.44363 31933 ft 417 kts 287°
2026-04-30 21:38 27.93528 -86.50592 31930 ft 417 kts 287°
2026-04-30 21:39 27.95333 -86.56829 31940 ft 417 kts 287°
2026-04-30 21:39 27.97136 -86.63056 31935 ft 417 kts 287°
2026-04-30 21:40 27.98941 -86.69284 31934 ft 417 kts 287°
2026-04-30 21:40 28.00739 -86.75519 31934 ft 417 kts 287°
2026-04-30 21:41 28.02569 -86.81695 31933 ft 417 kts 287°
2026-04-30 21:41 28.04424 -86.87901 31939 ft 415 kts 287°
2026-04-30 21:42 28.06271 -86.94092 31935 ft 415 kts 287°
2026-04-30 21:42 28.08114 -87.00294 31932 ft 415 kts 287°
2026-04-30 21:43 28.09950 -87.06496 31934 ft 415 kts 287°
2026-04-30 21:43 28.11785 -87.12703 31930 ft 415 kts 287°
2026-04-30 21:44 28.13616 -87.18906 31928 ft 415 kts 286°
2026-04-30 21:44 28.15442 -87.25118 31927 ft 416 kts 287°
2026-04-30 21:45 28.17269 -87.31329 31929 ft 415 kts 286°
2026-04-30 21:45 28.19096 -87.37543 31930 ft 415 kts 286°
2026-04-30 21:46 28.20914 -87.43745 31929 ft 415 kts 286°
2026-04-30 21:46 28.22725 -87.49950 31928 ft 415 kts 286°
2026-04-30 21:47 28.24539 -87.56154 31929 ft 414 kts 286°
2026-04-30 21:47 28.26345 -87.62361 31929 ft 414 kts 286°
2026-04-30 21:48 28.28139 -87.68525 31929 ft 414 kts 286°
2026-04-30 21:48 28.29937 -87.74721 31929 ft 410 kts 286°
2026-04-30 21:49 28.31712 -87.80861 31927 ft 410 kts 286°
2026-04-30 21:49 28.33489 -87.87005 31927 ft 410 kts 286°
2026-04-30 21:50 28.35262 -87.93148 31930 ft 410 kts 286°
2026-04-30 21:50 28.37039 -87.99313 31935 ft 411 kts 285°
2026-04-30 21:51 28.38995 -88.05425 31923 ft 413 kts 290°
2026-04-30 21:51 28.41336 -88.11393 31926 ft 412 kts 290°
2026-04-30 21:52 28.43671 -88.17327 31926 ft 411 kts 291°
2026-04-30 21:52 28.46005 -88.23256 31926 ft 411 kts 290°
2026-04-30 21:53 28.48328 -88.29192 31925 ft 411 kts 290°
2026-04-30 21:53 28.50653 -88.35133 31919 ft 411 kts 290°
2026-04-30 21:54 28.52968 -88.41073 31922 ft 411 kts 290°
2026-04-30 21:54 28.55281 -88.47017 31923 ft 411 kts 290°
2026-04-30 21:55 28.57575 -88.52963 31920 ft 410 kts 290°
2026-04-30 21:55 28.59859 -88.58867 31921 ft 410 kts 290°
2026-04-30 21:56 28.62163 -88.64810 31920 ft 410 kts 290°
2026-04-30 21:56 28.64464 -88.70754 31920 ft 410 kts 290°
2026-04-30 21:57 28.66771 -88.76702 31936 ft 411 kts 290°
2026-04-30 21:57 28.69087 -88.82663 31925 ft 412 kts 290°
2026-04-30 21:58 28.71382 -88.88640 31921 ft 412 kts 290°
2026-04-30 21:58 28.73694 -88.94627 31922 ft 413 kts 290°
2026-04-30 21:59 28.75992 -89.00615 31914 ft 413 kts 290°
2026-04-30 22:00 28.79441 -89.09614 31917 ft 413 kts 290°
2026-04-30 22:00 28.82883 -89.18611 31913 ft 413 kts 290°
2026-04-30 22:01 28.85176 -89.24608 31915 ft 412 kts 290°
2026-04-30 22:01 28.87450 -89.30582 31920 ft 410 kts 290°
2026-04-30 22:02 28.89698 -89.36557 31915 ft 410 kts 290°
2026-04-30 22:02 28.91944 -89.42491 31912 ft 410 kts 290°
2026-04-30 22:03 28.94228 -89.48455 31914 ft 410 kts 290°
2026-04-30 22:03 28.96498 -89.54427 31919 ft 410 kts 290°
2026-04-30 22:04 28.98761 -89.60413 31913 ft 411 kts 290°
2026-04-30 22:05 29.02153 -89.69401 31913 ft 411 kts 290°
2026-04-30 22:05 29.04406 -89.75397 31914 ft 411 kts 290°
2026-04-30 22:06 29.06658 -89.81400 31914 ft 411 kts 290°
2026-04-30 22:06 29.10039 -89.90399 31911 ft 411 kts 290°
2026-04-30 22:07 29.12292 -89.96407 31912 ft 411 kts 290°
2026-04-30 22:07 29.14527 -90.02418 31909 ft 411 kts 290°
2026-04-30 22:08 29.16748 -90.08437 31909 ft 411 kts 290°
2026-04-30 22:08 29.18251 -90.14657 31909 ft 408 kts 279°
2026-04-30 22:09 29.19319 -90.21030 31905 ft 408 kts 279°
2026-04-30 22:09 29.20393 -90.27403 31904 ft 408 kts 279°
2026-04-30 22:10 29.21470 -90.33779 31905 ft 408 kts 279°
2026-04-30 22:10 29.22539 -90.40157 31905 ft 407 kts 280°
2026-04-30 22:11 29.24134 -90.49695 31904 ft 407 kts 280°
2026-04-30 22:12 29.25193 -90.56060 31916 ft 407 kts 280°
2026-04-30 22:12 29.26244 -90.62429 31913 ft 407 kts 280°
2026-04-30 22:13 29.27294 -90.68796 31910 ft 407 kts 280°
2026-04-30 22:13 29.28347 -90.75163 31910 ft 407 kts 280°
2026-04-30 22:14 29.29393 -90.81532 31907 ft 407 kts 281°
2026-04-30 22:14 29.30439 -90.87897 31907 ft 407 kts 281°
2026-04-30 22:15 29.31308 -90.93187 31904 ft 407 kts 281°
2026-04-30 22:15 29.32346 -90.99553 31901 ft 407 kts 281°
2026-04-30 22:16 29.33379 -91.05923 31912 ft 407 kts 280°
2026-04-30 22:17 29.35454 -91.18668 31904 ft 406 kts 281°
2026-04-30 22:17 29.36998 -91.28227 31897 ft 407 kts 281°
2026-04-30 22:18 29.38531 -91.37793 31895 ft 407 kts 281°
2026-04-30 22:19 29.40053 -91.47351 31899 ft 407 kts 281°
2026-04-30 22:20 29.41569 -91.56885 31895 ft 407 kts 281°
2026-04-30 22:20 29.43082 -91.66462 31894 ft 407 kts 281°
2026-04-30 22:21 29.44086 -91.72852 31890 ft 407 kts 281°
2026-04-30 22:21 29.45085 -91.79241 31895 ft 407 kts 281°
2026-04-30 22:22 29.46085 -91.85630 31891 ft 407 kts 281°
2026-04-30 22:22 29.47083 -91.92022 31887 ft 407 kts 281°
2026-04-30 22:23 29.48080 -91.98438 31887 ft 409 kts 281°
2026-04-30 22:23 29.49075 -92.04865 31886 ft 409 kts 281°
2026-04-30 22:24 29.50065 -92.11293 31889 ft 409 kts 281°
2026-04-30 22:24 29.51054 -92.17723 31885 ft 409 kts 281°
2026-04-30 22:25 29.52041 -92.24160 31908 ft 409 kts 281°
2026-04-30 22:25 29.53025 -92.30597 31891 ft 410 kts 280°
2026-04-30 22:26 29.54494 -92.40274 31887 ft 410 kts 280°
2026-04-30 22:27 29.55472 -92.46732 31888 ft 410 kts 280°
2026-04-30 22:27 29.56920 -92.56375 31896 ft 410 kts 280°
2026-04-30 22:28 29.58370 -92.66066 31897 ft 410 kts 280°
2026-04-30 22:29 29.60305 -92.78983 31897 ft 410 kts 279°
2026-04-30 22:31 29.63648 -93.01609 31889 ft 410 kts 279°
2026-04-30 22:32 29.66005 -93.17714 31892 ft 408 kts 279°
2026-04-30 22:33 29.68334 -93.33797 31879 ft 408 kts 279°
2026-04-30 22:35 29.70643 -93.49887 31881 ft 408 kts 279°
2026-04-30 22:36 29.72934 -93.65982 31879 ft 408 kts 279°
2026-04-30 22:37 29.74749 -93.78848 31881 ft 407 kts 279°
2026-04-30 22:38 29.76535 -93.91592 31883 ft 402 kts 279°
2026-04-30 22:39 29.77858 -94.01098 31894 ft 400 kts 279°
2026-04-30 22:40 29.80479 -94.20073 31884 ft 400 kts 279°
2026-04-30 22:41 29.82629 -94.35816 31877 ft 399 kts 279°
2026-04-30 22:43 29.85185 -94.54765 31877 ft 399 kts 279°
2026-04-30 22:44 29.86871 -94.67351 31876 ft 397 kts 279°
2026-04-30 22:45 29.89386 -94.86201 31873 ft 397 kts 279°
2026-04-30 22:47 29.91862 -95.05046 31873 ft 396 kts 278°
2026-04-30 22:48 29.93499 -95.17608 31869 ft 396 kts 278°
2026-04-30 22:49 29.95988 -95.36444 31860 ft 396 kts 280°
2026-04-30 22:51 29.98993 -95.55176 31884 ft 396 kts 280°
2026-04-30 22:52 30.00485 -95.64537 31852 ft 394 kts 279°
2026-04-30 22:53 30.02451 -95.76975 31845 ft 394 kts 279°
2026-04-30 22:53 30.03905 -95.86277 31816 ft 394 kts 279°
2026-04-30 22:55 30.06353 -96.01843 31757 ft 394 kts 279°
2026-04-30 22:56 30.08295 -96.14299 31697 ft 393 kts 279°
2026-04-30 22:57 30.10691 -96.29833 31699 ft 393 kts 279°
2026-04-30 22:58 30.12599 -96.42272 31727 ft 393 kts 279°
2026-04-30 22:59 30.15430 -96.60920 31767 ft 392 kts 279°